[[{"header":{"parameterUnit":"m.s-1","parameterCategory":1,"la1":30.2991,"la2":30.254,"lo1":-89.0895,"lo2":-89.0444,"dy":0.0017,"dx":0.0017,"nx":28,"ny":28,"refTime":"2025-08-22T03:00:00:Z","depth":0,"parameterNumber":2,"parameterNumberName":"U-component_of_WINDS"},"data":[0,0,0,0,0,0,0,0,0,0,0,0,0,0,0,0,0,0,0,0,0,0,0,0,0,0,0,0,0,0,0,0,0,0,0,0,0,0,0,0,0,0,0,0,0,0,0,0,0,0,0,0,0,0,0,0,0,0,-1.2191,-1.2191,0,-1.2139,-1.2139,-1.2138,-1.2091,-1.209,-1.209,-1.2089,-1.2035,-1.2034,-1.2033,0,0,0,0,0,0,0,0,0,0,0,0,0,-1.2246,-1.2246,-1.2191,-1.219,-1.219,-1.2139,-1.2139,-1.2138,-1.2091,-1.209,-1.209,-1.2089,-1.2035,-1.2034,-1.2033,0,0,0,0,0,0,0,0,0,0,0,0,0,-1.2211,-1.2245,-1.2191,-1.216,-1.2157,-1.2139,-1.2139,-1.2138,-1.2091,-1.209,-1.209,-1.2089,-1.2036,-1.2034,-1.2033,-1.2041,0,0,-1.2029,-1.2028,0,0,0,0,0,0,0,0,-1.2213,-1.2209,-1.2166,-1.2163,-1.2159,-1.2121,-1.2138,-1.2105,-1.2091,-1.2116,-1.2089,-1.2088,-1.2064,-1.206,-1.2052,-1.2039,-1.2036,-1.2029,-1.2028,-1.2027,-1.2027,0,0,0,0,0,0,0,-1.2216,-1.2211,-1.217,-1.2165,-1.2161,-1.2148,-1.2142,-1.2132,-1.2096,-1.2114,-1.211,-1.2105,-1.2062,-1.2054,-1.2051,-1.2036,-1.2029,-1.2027,-1.2027,-1.2026,-1.2022,-1.2022,0,0,0,0,0,0,-1.2223,-1.2214,-1.2172,-1.2169,-1.2185,-1.2148,-1.2141,-1.2134,-1.2096,-1.2089,-1.2106,-1.2103,-1.2057,-1.2053,-1.2049,-1.2053,-1.2027,-1.2026,-1.2025,-1.2021,-1.2022,-1.2023,0,0,0,0,0,0,-1.2225,-1.222,-1.2174,-1.219,-1.2183,-1.2148,-1.214,-1.2133,-1.2125,-1.2089,-1.2082,-1.2104,-1.2056,-1.2051,-1.2043,-1.2051,-1.2025,-1.2024,-1.202,-1.2021,-1.2022,-1.2064,0,0,0,0,0,0,-1.2226,-1.2221,-1.2225,-1.2191,-1.2183,-1.217,-1.214,-1.2133,-1.2123,-1.2119,-1.2086,-1.208,-1.2055,-1.2045,-1.2041,-1.2048,-1.2023,-1.2019,-1.2021,-1.2022,-1.2062,-1.2067,-1.2071,0,0,0,0,0,-1.2229,-1.2239,-1.2225,-1.222,-1.2187,-1.2171,-1.2166,-1.2138,-1.2124,-1.2126,-1.2103,-1.2081,-1.2051,-1.2045,-1.204,-1.2047,-1.2019,-1.202,-1.2022,-1.206,-1.2066,-1.207,0,0,0,0,0,0,-1.2275,-1.2234,-1.2218,-1.2218,-1.2198,-1.2163,-1.2166,-1.2145,-1.2129,-1.2125,-1.209,-1.2083,-1.2078,-1.2062,-1.2056,-1.2051,-1.2031,-1.2032,-1.2062,-1.2067,-1.2071,-1.2075,-1.2022,0,0,0,0,0,-1.2285,-1.2277,-1.2241,-1.2244,-1.2235,-1.2202,-1.2194,-1.2174,-1.2151,-1.2143,-1.2119,-1.2098,-1.2083,-1.2074,-1.2059,-1.2059,-1.205,-1.2061,-1.2066,-1.2069,-1.207,-1.2066,-1.207,-1.2028,-1.2028,-1.2028,0,0,-1.2307,-1.2283,-1.228,-1.2253,-1.2235,-1.2225,-1.2195,-1.2187,-1.2179,-1.2141,-1.2132,-1.2113,-1.2087,-1.2082,-1.2079,-1.2068,-1.2079,-1.2071,-1.2075,-1.2073,-1.2068,-1.2072,-1.2075,-1.2029,-1.2029,-1.2029,0,0,-1.234,-1.2322,-1.2321,-1.2304,-1.2277,-1.2254,-1.2254,-1.2221,-1.2207,-1.2197,-1.2168,-1.2157,-1.2134,-1.2115,-1.2102,-1.2125,-1.2103,-1.2121,-1.2144,-1.214,-1.2143,-1.2146,-1.2151,-1.2154,-1.2122,-1.2122,-1.2122,0,-1.2369,-1.2354,-1.2324,-1.2316,-1.2304,-1.2269,-1.2267,-1.2251,-1.2221,-1.2212,-1.2201,-1.2168,-1.2148,-1.2137,-1.2142,-1.2134,-1.2131,-1.2125,-1.2145,-1.2147,-1.2149,-1.2155,-1.2157,-1.2125,-1.2124,-1.2124,-1.2124,0,-1.239,-1.238,-1.2383,-1.2353,-1.2342,-1.2337,-1.2304,-1.2296,-1.2276,-1.2254,-1.2242,-1.2216,-1.2194,-1.219,-1.2171,-1.2175,-1.2169,-1.2152,-1.2131,-1.2156,-1.216,-1.2162,-1.2128,-1.2127,-1.2126,-1.2126,0,0,-1.2452,-1.2405,-1.2406,-1.2391,-1.2358,-1.2348,-1.2341,-1.2319,-1.2311,-1.2291,-1.2282,-1.2261,-1.2244,-1.223,-1.2208,-1.2205,-1.2221,-1.2187,-1.2186,-1.2193,-1.2221,-1.2233,-1.2236,-1.2206,-1.2207,-1.2207,-1.2223,0,-1.2478,-1.2464,-1.2435,-1.2429,-1.2418,-1.2383,-1.2376,-1.2354,-1.2333,-1.2319,-1.2295,-1.228,-1.226,-1.225,-1.2246,-1.222,-1.2226,-1.2219,-1.2196,-1.2196,-1.2203,-1.2239,-1.2252,-1.2269,-1.2224,-1.2225,-1.2225,0,-1.2507,-1.2488,-1.2481,-1.2446,-1.244,-1.2435,-1.241,-1.2398,-1.2371,-1.2356,-1.2339,-1.2314,-1.2302,-1.2283,-1.2265,-1.2261,-1.2249,-1.2235,-1.2235,-1.2231,-1.2211,-1.2234,-1.2273,-1.2275,-1.2227,-1.2227,-1.2227,0,-1.2551,-1.2523,-1.2515,-1.2503,-1.2463,-1.2459,-1.2442,-1.2414,-1.2401,-1.238,-1.2371,-1.2348,-1.2336,-1.2318,-1.2286,-1.2276,-1.227,-1.225,-1.2255,-1.2256,-1.2255,-1.2256,-1.2292,-1.225,-1.225,-1.225,-1.225,0,-1.2582,-1.2579,-1.2533,-1.2528,-1.2522,-1.2488,-1.2482,-1.2461,-1.2437,-1.2425,-1.2394,-1.2383,-1.2343,-1.2327,-1.2303,-1.229,-1.2285,-1.227,-1.2263,-1.2272,-1.2274,-1.2264,-1.2261,-1.2251,-1.2251,-1.2251,-1.2251,0,-1.2629,-1.2599,-1.2587,-1.2549,-1.2539,-1.2536,-1.2503,-1.2495,-1.2471,-1.2457,-1.2451,-1.2414,-1.2393,-1.236,-1.233,-1.2313,-1.2304,-1.2294,-1.2313,-1.2309,-1.2315,-1.2315,-1.2345,-1.2347,-1.2306,-1.2307,-1.2307,0,-1.2651,-1.2647,-1.2608,-1.2599,-1.2582,-1.2567,-1.2554,-1.2519,-1.2506,-1.2474,-1.2469,-1.2446,-1.2426,-1.2395,-1.2364,-1.234,-1.2327,-1.234,-1.2324,-1.2332,-1.2325,-1.2325,-1.2323,-1.2343,-1.2344,-1.2345,-1.2345,0,-1.2692,-1.2676,-1.2659,-1.2636,-1.2621,-1.2601,-1.2579,-1.2572,-1.2532,-1.2519,-1.2498,-1.2482,-1.245,-1.2427,-1.2398,-1.2378,-1.2354,-1.235,-1.235,-1.2358,-1.2369,-1.2361,-1.2322,-1.235,-1.2349,-1.2349,-1.2349,-1.2348,-1.2725,-1.2719,-1.269,-1.2671,-1.2651,-1.2631,-1.2621,-1.2595,-1.2577,-1.2549,-1.253,-1.2509,-1.2478,-1.2437,-1.2418,-1.24,-1.239,-1.239,-1.239,-1.239,-1.2392,-1.2373,-1.2395,-1.2395,-1.2395,-1.2395,-1.2394,0,-1.2762,-1.2742,-1.2725,-1.2695,-1.2679,-1.2658,-1.2632,-1.262,-1.2602,-1.2577,-1.2557,-1.2531,-1.2507,-1.2474,-1.2447,-1.2439,-1.2427,-1.2433,-1.2432,-1.2428,-1.2404,-1.2406,-1.2443,-1.2443,-1.2443,-1.2443,-1.2443,-1.2443,-1.278,-1.2768,-1.2749,-1.2726,-1.2704,-1.2684,-1.2671,-1.2651,-1.263,-1.2603,-1.2583,-1.2561,-1.2532,-1.2502,-1.2479,-1.2469,-1.246,-1.2469,-1.2456,-1.2434,-1.243,-1.2426,-1.2427,-1.2468,-1.2468,-1.2481,-1.2481,-1.2481]},{"header":{"parameterUnit":"m.s-1","parameterCategory":1,"la1":30.2991,"la2":30.254,"lo1":-89.0895,"lo2":-89.0444,"dy":0.0017,"dx":0.0017,"nx":28,"ny":28,"refTime":"2025-08-22T03:00:00:Z","depth":0,"parameterNumber":3,"parameterNumberName":"V-component_of_WINDS"},"data":[0,0,0,0,0,0,0,0,0,0,0,0,0,0,0,0,0,0,0,0,0,0,0,0,0,0,0,0,0,0,0,0,0,0,0,0,0,0,0,0,0,0,0,0,0,0,0,0,0,0,0,0,0,0,0,0,0,0,-1.4647,-1.4646,0,-1.4553,-1.4552,-1.4551,-1.4526,-1.4527,-1.4527,-1.4528,-1.4425,-1.4422,-1.4419,0,0,0,0,0,0,0,0,0,0,0,0,0,-1.4796,-1.4794,-1.4648,-1.4646,-1.4645,-1.4554,-1.4552,-1.4551,-1.4526,-1.4527,-1.4527,-1.4528,-1.4426,-1.4423,-1.4419,0,0,0,0,0,0,0,0,0,0,0,0,0,-1.472,-1.4793,-1.4648,-1.4622,-1.4619,-1.4554,-1.4552,-1.4551,-1.4526,-1.4527,-1.4528,-1.4528,-1.4428,-1.4423,-1.4418,-1.437,0,0,-1.4403,-1.4401,0,0,0,0,0,0,0,0,-1.4724,-1.4714,-1.4627,-1.4623,-1.462,-1.4553,-1.4567,-1.449,-1.4526,-1.4561,-1.4528,-1.4529,-1.4466,-1.4458,-1.4439,-1.4366,-1.4361,-1.4403,-1.44,-1.4398,-1.4396,0,0,0,0,0,0,0,-1.473,-1.4718,-1.461,-1.4625,-1.4621,-1.4612,-1.4602,-1.4552,-1.451,-1.4558,-1.4556,-1.4545,-1.4465,-1.4444,-1.4436,-1.436,-1.4403,-1.4398,-1.4395,-1.4393,-1.4237,-1.4236,0,0,0,0,0,0,-1.474,-1.4723,-1.4613,-1.4607,-1.4675,-1.4609,-1.4597,-1.4573,-1.451,-1.4502,-1.4545,-1.4545,-1.4451,-1.4442,-1.4432,-1.4369,-1.4398,-1.4393,-1.439,-1.4238,-1.4236,-1.4235,0,0,0,0,0,0,-1.4744,-1.4731,-1.4617,-1.4664,-1.4649,-1.4605,-1.4578,-1.4571,-1.455,-1.45,-1.4492,-1.4532,-1.4452,-1.4439,-1.4385,-1.4365,-1.4391,-1.4386,-1.4239,-1.4237,-1.4236,-1.4244,0,0,0,0,0,0,-1.4748,-1.4732,-1.4716,-1.4664,-1.4647,-1.4574,-1.4577,-1.4568,-1.4542,-1.4541,-1.4486,-1.4477,-1.4451,-1.4393,-1.438,-1.4359,-1.4382,-1.4241,-1.4238,-1.4236,-1.4245,-1.4242,-1.424,0,0,0,0,0,-1.4754,-1.4722,-1.4716,-1.4703,-1.4626,-1.4573,-1.4563,-1.4535,-1.4541,-1.4522,-1.449,-1.4479,-1.437,-1.4387,-1.4373,-1.435,-1.4242,-1.4239,-1.4236,-1.4246,-1.4243,-1.424,0,0,0,0,0,0,-1.4772,-1.4715,-1.4707,-1.4659,-1.4621,-1.4569,-1.4546,-1.4534,-1.4492,-1.4493,-1.4458,-1.4446,-1.4393,-1.4366,-1.4387,-1.4298,-1.4305,-1.43,-1.4317,-1.4314,-1.4312,-1.4318,-1.4378,0,0,0,0,0,-1.477,-1.4735,-1.4686,-1.4647,-1.4629,-1.459,-1.4566,-1.4548,-1.4507,-1.449,-1.4454,-1.4413,-1.4368,-1.434,-1.4297,-1.4241,-1.4226,-1.4218,-1.4215,-1.4213,-1.4208,-1.4172,-1.4166,-1.4226,-1.4226,-1.4226,0,0,-1.4767,-1.4731,-1.4711,-1.465,-1.4619,-1.4579,-1.4577,-1.4536,-1.4505,-1.4484,-1.443,-1.4401,-1.4352,-1.4296,-1.427,-1.4272,-1.4188,-1.421,-1.4209,-1.4205,-1.4168,-1.4163,-1.4158,-1.4224,-1.4224,-1.4225,0,0,-1.4739,-1.4711,-1.4673,-1.4642,-1.4594,-1.4568,-1.4559,-1.4508,-1.4488,-1.4434,-1.4416,-1.4377,-1.4303,-1.4267,-1.4239,-1.4193,-1.418,-1.418,-1.4167,-1.4131,-1.4127,-1.4122,-1.4102,-1.4095,-1.4175,-1.4175,-1.4175,0,-1.474,-1.4682,-1.4655,-1.4614,-1.4586,-1.4565,-1.4525,-1.4494,-1.4435,-1.4414,-1.4418,-1.4321,-1.4287,-1.422,-1.4208,-1.4188,-1.4173,-1.4186,-1.413,-1.4125,-1.4121,-1.4101,-1.4094,-1.4175,-1.4175,-1.4175,-1.4175,0,-1.4684,-1.4643,-1.4618,-1.4562,-1.4531,-1.449,-1.4454,-1.4425,-1.4408,-1.438,-1.4322,-1.428,-1.4226,-1.4209,-1.4192,-1.4137,-1.414,-1.4137,-1.4144,-1.4115,-1.4096,-1.4088,-1.4175,-1.4175,-1.4175,-1.4175,0,0,-1.4667,-1.4594,-1.4585,-1.4557,-1.4501,-1.4468,-1.4424,-1.4372,-1.4346,-1.4304,-1.4264,-1.4199,-1.4195,-1.4164,-1.4142,-1.4112,-1.4073,-1.4112,-1.411,-1.4103,-1.4004,-1.4005,-1.3997,-1.4064,-1.4063,-1.4061,-1.4007,0,-1.4631,-1.4555,-1.4527,-1.4463,-1.4422,-1.4399,-1.436,-1.432,-1.4291,-1.425,-1.4218,-1.4171,-1.4172,-1.4152,-1.4121,-1.4084,-1.4052,-1.4088,-1.4022,-1.402,-1.4033,-1.3987,-1.3989,-1.394,-1.4,-1.3998,-1.3997,0,-1.4579,-1.4537,-1.4469,-1.4414,-1.4396,-1.4362,-1.4309,-1.4272,-1.4223,-1.4204,-1.4166,-1.4146,-1.4095,-1.4105,-1.4031,-1.4057,-1.4027,-1.4005,-1.4002,-1.3993,-1.4006,-1.3974,-1.3924,-1.3915,-1.3986,-1.3987,-1.3988,0,-1.457,-1.4496,-1.4445,-1.4422,-1.4357,-1.4333,-1.4304,-1.4257,-1.4226,-1.4179,-1.4157,-1.4104,-1.4075,-1.4032,-1.3997,-1.4008,-1.3924,-1.3933,-1.3903,-1.3904,-1.3886,-1.3887,-1.3827,-1.3871,-1.3872,-1.3872,-1.3872,0,-1.4532,-1.449,-1.4439,-1.4407,-1.4358,-1.4324,-1.4276,-1.4245,-1.4202,-1.4161,-1.4137,-1.4098,-1.4055,-1.4009,-1.398,-1.392,-1.3908,-1.3888,-1.3881,-1.3889,-1.3891,-1.3868,-1.387,-1.387,-1.387,-1.3871,-1.3871,0,-1.4514,-1.4479,-1.442,-1.4363,-1.4347,-1.4313,-1.4262,-1.4228,-1.4197,-1.4145,-1.413,-1.4081,-1.4026,-1.3986,-1.3914,-1.3894,-1.3829,-1.3823,-1.3846,-1.3842,-1.3813,-1.3815,-1.3734,-1.372,-1.3777,-1.3776,-1.3776,0,-1.4491,-1.4458,-1.4396,-1.4368,-1.4339,-1.4294,-1.4261,-1.4225,-1.4191,-1.4131,-1.4102,-1.4045,-1.3998,-1.3908,-1.3864,-1.3808,-1.3798,-1.3774,-1.3789,-1.3797,-1.3793,-1.3795,-1.3789,-1.3771,-1.377,-1.377,-1.377,0,-1.4453,-1.4436,-1.4391,-1.4339,-1.4301,-1.4258,-1.4214,-1.4191,-1.4146,-1.4108,-1.4052,-1.4014,-1.394,-1.3881,-1.3819,-1.3786,-1.3768,-1.3765,-1.3754,-1.3762,-1.3775,-1.3763,-1.3836,-1.3767,-1.3767,-1.3767,-1.3768,-1.3768,-1.4429,-1.4397,-1.4348,-1.4297,-1.426,-1.4219,-1.4182,-1.4146,-1.4099,-1.4036,-1.4017,-1.3956,-1.3902,-1.3818,-1.3783,-1.3732,-1.3733,-1.3719,-1.3715,-1.3711,-1.3709,-1.3785,-1.3721,-1.3721,-1.3721,-1.3721,-1.3721,0,-1.4387,-1.4354,-1.4307,-1.4246,-1.4205,-1.4194,-1.4143,-1.4108,-1.4056,-1.4008,-1.3961,-1.3892,-1.3834,-1.3784,-1.3723,-1.3691,-1.3681,-1.3676,-1.3677,-1.3668,-1.3714,-1.3728,-1.3685,-1.3685,-1.3685,-1.3685,-1.3685,-1.3685,-1.4361,-1.4305,-1.4281,-1.4203,-1.4169,-1.4111,-1.4082,-1.4041,-1.4003,-1.3928,-1.3879,-1.3848,-1.3797,-1.3731,-1.3675,-1.3661,-1.3638,-1.3634,-1.3618,-1.3662,-1.3666,-1.367,-1.3682,-1.363,-1.363,-1.3576,-1.3575,-1.3575]}]]